This is the latest recevied weather packets stored in our database for station/object VE3MJM-WX. If no packets are shown the sender has not sent any weather packets the latest 10 day(s).
| Time | Temp. | Humidity | Pressure | Rain* | Wind** | Luminosity | Snow |
|---|---|---|---|---|---|---|---|
| 1777703107 | -0.56° C | 87% | 1011 hPa | 0 mm | - | - | - |
| 1777702205 | 0.56° C | 83% | 1010.7 hPa | 0 mm | - | - | - |
| 1777701302 | 0.56° C | 81% | 1011.1 hPa | 0 mm | - | - | - |
| 1777700400 | 0.56° C | 78% | 1010.9 hPa | 0 mm | - | - | - |
| 1777699497 | 0.56° C | 79% | 1011.1 hPa | 0 mm | - | - | - |
| 1777698595 | 0.56° C | 80% | 1011.1 hPa | 0 mm | - | - | - |
| 1777697692 | 1.11° C | 77% | 1011 hPa | 0 mm | - | - | - |
| 1777696789 | 1.11° C | 77% | 1010.9 hPa | 0 mm | - | - | - |
| 1777695887 | 1.11° C | 78% | 1010.8 hPa | 0 mm | - | - | - |
| 1777694984 | 1.11° C | 76% | 1010.7 hPa | 0 mm | - | - | - |
| 1777694082 | 1.67° C | 77% | 1010.6 hPa | 0 mm | - | - | - |
| 1777693179 | 1.67° C | 77% | 1010.3 hPa | 0 mm | - | - | - |
| 1777692277 | 1.67° C | 74% | 1010.2 hPa | 0 mm | - | - | - |
| 1777691374 | 1.67° C | 74% | 1010.3 hPa | 0 mm | - | - | - |
| 1777690471 | 1.67° C | 72% | 1010.3 hPa | 0 mm | - | - | - |
| 1777689569 | 1.11° C | 71% | 1010.2 hPa | 0 mm | - | - | - |
| 1777688667 | 1.11° C | 71% | 1010.5 hPa | 0 mm | - | - | - |
| 1777687764 | 1.67° C | 69% | 1010.4 hPa | 0 mm | - | - | - |
| 1777686861 | 1.67° C | 68% | 1010.3 hPa | 0 mm | - | - | - |
| 1777685959 | 2.22° C | 65% | 1009.9 hPa | 0 mm | - | - | - |
| 1777685056 | 2.22° C | 63% | 1010 hPa | 0 mm | - | - | - |
| 1777684154 | 2.78° C | 61% | 1009.7 hPa | 0 mm | - | - | - |
| 1777683251 | 2.78° C | 59% | 1009.6 hPa | 0 mm | - | - | - |
| 1777682349 | 3.33° C | 59% | 1009.4 hPa | 0 mm | - | - | - |
| 1777681476 | 3.33° C | 59% | 1009.2 hPa | 0 mm | - | - | - |
* Rain latest hour (hover to see other rain measurements)
** Current wind speed in m/s (hover to see current wind gust speed)